KE5OYL Weather Reports


Display with metric or nautical units.
time (UTC)temp
F
wind
direction
speed
MPH
gust
MPH
rain 1hr
in
rain 24hr
in
rain mn
in
humidity
%
barometer
mb
20260502222306 78 333 1.0 7.0 0.00 0.00 0.00 30 1019.5
20260502221801 77 284 1.0 2.0 0.00 0.00 0.00 29 1019.4
20260502221252 76 295 3.0 7.0 0.00 0.00 0.00 30 1019.6
20260502220749 77 338 4.0 8.0 0.00 0.00 0.00 30 1019.6
20260502220245 78 314 3.0 5.0 0.00 0.00 0.00 28 1019.5
20260502215742 78 345 1.0 2.0 0.00 0.00 0.00 28 1019.5
20260502215239 76 272 1.0 2.0 0.00 0.00 0.00 28 1019.7
20260502214737 76 347 2.0 7.0 0.00 0.00 0.00 29 1019.9
20260502214235 76 311 5.0 8.0 0.00 0.00 0.00 29 1019.9
20260502213731 75 315 5.0 11.0 0.00 0.00 0.00 29 1020.0
20260502213228 77 259 10.0 13.0 0.00 0.00 0.00 29 1019.8
20260502212726 77 266 9.0 10.0 0.00 0.00 0.00 29 1020.0
20260502212224 77 353 1.0 5.0 0.00 0.00 0.00 30 1020.0
20260502211720 77 342 6.0 9.0 0.00 0.00 0.00 30 1020.0
20260502211217 77 29 1.0 5.0 0.00 0.00 0.00 30 1020.0
20260502210714 75 340 1.0 8.0 0.00 0.00 0.00 32 1020.1
20260502210211 77 336 3.0 6.0 0.00 0.00 0.00 30 1020.4
20260502205708 76 210 2.0 5.0 0.00 0.00 0.00 30 1020.2
20260502205205 75 3 1.0 8.0 0.00 0.00 0.00 30 1020.4
20260502204702 77 318 7.0 10.0 0.00 0.00 0.00 29 1020.7
20260502204200 75 15 5.0 6.0 0.00 0.00 0.00 30 1020.6
20260502203657 77 42 7.0 11.0 0.00 0.00 0.00 30 1020.6
20260502203155 77 30 5.0 7.0 0.00 0.00 0.00 30 1020.6
20260502202648 76 29 5.0 7.0 0.00 0.00 0.00 31 1020.5
20260502202147 77 27 3.0 7.0 0.00 0.00 0.00 31 1020.7
20260502201644 78 313 2.0 3.0 0.00 0.00 0.00 30 1021.0
20260502201140 77 321 3.0 5.0 0.00 0.00 0.00 32 1020.8
20260502200636 75 351 1.0 6.0 0.00 0.00 0.00 32 1020.9
20260502200133 75 320 5.0 14.0 0.00 0.00 0.00 31 1021.0
20260502195632 76 348 5.0 10.0 0.00 0.00 0.00 30 1020.9
20260502195127 74 350 2.0 5.0 0.00 0.00 0.00 33 1021.1
20260502194624 74 26 5.0 10.0 0.00 0.00 0.00 32 1021.0
20260502194121 74 61 2.0 7.0 0.00 0.00 0.00 31 1021.0
20260502193617 75 357 4.0 8.0 0.00 0.00 0.00 31 1021.3
20260502193114 76 314 2.0 5.0 0.00 0.00 0.00 30 1021.2
20260502192609 75 352 5.0 10.0 0.00 0.00 0.00 32 1021.1
20260502192108 75 295 5.0 8.0 0.00 0.00 0.00 30 1021.4
20260502191604 74 247 3.0 6.0 0.00 0.00 0.00 31 1021.6
20260502191101 75 292 5.0 8.0 0.00 0.00 0.00 31 1021.5
20260502190559 75 257 9.0 9.0 0.00 0.00 0.00 31 1021.3
20260502190050 73 20 6.0 13.0 0.00 0.00 0.00 32 1021.5
20260502185544 74 29 5.0 9.0 0.00 0.00 0.00 32 1021.6
20260502185042 73 272 5.0 7.0 0.00 0.00 0.00 32 1021.7
20260502184538 73 24 0.0 6.0 0.00 0.00 0.00 34 1021.8
20260502184034 75 27 5.0 9.0 0.00 0.00 0.00 31 1021.7
20260502183530 73 280 3.0 7.0 0.00 0.00 0.00 32 1021.9
20260502183027 75 12 1.0 1.0 0.00 0.00 0.00 33 1021.8
20260502182522 73 246 2.0 3.0 0.00 0.00 0.00 32 1021.9
20260502182018 74 236 4.0 7.0 0.00 0.00 0.00 33 1022.0
20260502181516 73 340 2.0 9.0 0.00 0.00 0.00 35 1022.0
20260502181015 73 20 5.0 7.0 0.00 0.00 0.00 33 1022.0
20260502180511 73 350 1.0 5.0 0.00 0.00 0.00 34 1022.2
20260502170430 71 33 1.0 7.0 0.00 0.00 0.00 37 1022.8
20260502163913 70 347 1.0 6.0 0.00 0.00 0.00 40 1023.1
20260502163404 69 334 3.0 7.0 0.00 0.00 0.00 42 1023.0
20260502162902 70 352 3.0 7.0 0.00 0.00 0.00 41 1023.0
20260502162358 70 13 3.0 8.0 0.00 0.00 0.00 42 1022.7
20260502161855 69 17 0.0 3.0 0.00 0.00 0.00 44 1022.8
20260502161351 69 346 3.0 7.0 0.00 0.00 0.00 42 1023.0
20260502160849 69 31 1.0 5.0 0.00 0.00 0.00 43 1023.0
20260502160348 68 19 0.0 3.0 0.00 0.00 0.00 45 1023.1
20260502152323 68 359 4.0 8.0 0.00 0.00 0.00 46 1022.8
20260502151820 66 356 2.0 5.0 0.00 0.00 0.00 47 1022.7
20260502151317 65 356 1.0 6.0 0.00 0.00 0.00 52 1022.9
20260502150814 65 0 1.0 5.0 0.00 0.00 0.00 56 1023.0
20260502150311 65 32 0.0 3.0 0.00 0.00 0.00 57 1022.8
20260502130659 57 275 5.0 6.0 0.00 0.00 0.00 80 1022.1
20260502130157 56 337 3.0 6.0 0.00 0.00 0.00 81 1022.2
20260502123642 56 354 1.0 5.0 0.00 0.00 0.00 79 1021.5
20260502123139 56 353 0.0 5.0 0.00 0.00 0.00 80 1021.6
20260502122635 56 285 3.0 6.0 0.00 0.00 0.00 80 1021.3
20260502122132 56 338 3.0 3.0 0.00 0.00 0.00 80 1021.2
20260502121630 56 356 0.0 2.0 0.00 0.00 0.00 80 1021.0
20260502121128 56 3 0.0 2.0 0.00 0.00 0.00 80 1020.8
20260502120624 55 327 3.0 3.0 0.00 0.00 0.00 80 1021.0
20260502120121 55 343 1.0 3.0 0.00 0.00 0.00 80 1020.9
20260502115619 55 349 2.0 2.0 0.00 0.00 0.00 80 1020.8
20260502115114 55 273 4.0 6.0 0.00 0.00 0.00 80 1020.5
20260502114611 55 291 4.0 6.0 0.00 0.00 0.00 79 1020.7
20260502114108 56 329 3.0 6.0 0.00 0.00 0.00 79 1020.5
20260502113605 56 342 1.0 5.0 0.00 0.00 0.00 78 1020.5
20260502113104 56 300 5.0 7.0 0.00 0.00 0.00 78 1020.5
20260502112601 56 314 4.0 8.0 0.00 0.00 0.00 78 1020.5
20260502112059 55 198 3.0 5.0 0.00 0.00 0.00 78 1020.2
20260502111556 55 9 0.0 1.0 0.00 0.00 0.00 79 1020.2
20260502111053 55 333 2.0 2.0 0.00 0.00 0.00 78 1020.0
20260502110551 55 329 1.0 2.0 0.00 0.00 0.00 78 1020.1
20260502110048 55 344 1.0 2.0 0.00 0.00 0.00 78 1020.0
20260502105545 55 351 0.0 2.0 0.00 0.00 0.00 78 1019.9
20260502105043 55 342 1.0 2.0 0.00 0.00 0.00 79 1019.9
20260502104539 55 324 1.0 3.0 0.00 0.00 0.00 79 1020.2
20260502104037 55 348 1.0 2.0 0.00 0.00 0.00 79 1020.1
20260502103535 55 345 1.0 2.0 0.00 0.00 0.00 79 1020.2
20260502103033 54 2 0.0 1.0 0.00 0.00 0.00 80 1020.4
20260502102529 54 15 1.0 1.0 0.00 0.00 0.00 80 1020.0
20260502102026 55 8 1.0 1.0 0.00 0.00 0.00 79 1020.0
20260502101524 55 7 1.0 1.0 0.00 0.00 0.00 78 1020.1
20260502101022 56 358 1.0 1.0 0.00 0.00 0.00 76 1020.0
20260502100520 56 4 0.0 2.0 0.00 0.00 0.00 75 1019.6
20260502091455 57 323 3.0 5.0 0.00 0.00 0.00 73 1019.6
20260502090952 57 344 2.0 3.0 0.00 0.00 0.00 74 1019.5
20260502090449 57 334 2.0 2.0 0.00 0.00 0.00 74 1019.6
20260502071343 57 338 0.0 0.0 0.00 0.00 0.00 75 1019.6
20260502070842 57 338 0.0 0.0 0.00 0.00 0.00 74 1019.5
20260502070339 57 338 1.0 2.0 0.00 0.00 0.00 74 1019.6
20260502065838 57 338 1.0 1.0 0.00 0.00 0.00 74 1019.7
20260502065335 57 338 1.0 1.0 0.00 0.00 0.00 75 1019.8
20260502064833 57 338 1.0 1.0 0.00 0.00 0.00 75 1020.0
20260502064331 58 338 0.0 1.0 0.00 0.00 0.00 75 1020.0
20260502063828 58 337 1.0 2.0 0.00 0.00 0.00 75 1019.8
20260502063326 58 338 1.0 1.0 0.00 0.00 0.00 74 1020.0
20260502062822 58 330 1.0 2.0 0.00 0.00 0.00 74 1019.9
20260502062320 58 319 1.0 2.0 0.00 0.00 0.00 74 1019.9
20260502061819 58 342 0.0 1.0 0.00 0.00 0.00 74 1019.9
20260502061316 58 327 1.0 2.0 0.00 0.00 0.00 73 1019.5
20260502060812 59 330 0.0 2.0 0.00 0.00 0.00 74 1019.6
20260502060307 59 296 1.0 5.0 0.00 0.00 0.00 73 1019.7
20260502055805 59 318 1.0 2.0 0.00 0.00 0.00 73 1019.7
20260502055305 59 357 0.0 1.0 0.00 0.00 0.00 72 1019.8
20260502054802 59 0 1.0 1.0 0.00 0.00 0.00 71 1019.7
20260502054259 59 12 1.0 1.0 0.00 0.00 0.00 70 1019.9
20260502053756 59 19 1.0 1.0 0.00 0.00 0.00 70 1019.9
20260502053253 59 20 0.0 1.0 0.00 0.00 0.00 69 1019.7
20260502052751 59 20 1.0 1.0 0.00 0.00 0.00 68 1019.8
20260502052249 59 20 0.0 1.0 0.00 0.00 0.00 68 1019.9
20260502051747 59 20 0.0 0.0 0.00 0.00 0.00 68 1019.8
20260502051245 59 20 0.0 1.0 0.00 0.00 0.00 68 1019.7
20260502050741 59 20 0.0 0.0 0.00 0.00 0.00 68 1020.0
20260502050237 59 20 1.0 1.0 0.00 0.00 0.00 68 1020.0
20260502045734 58 21 0.0 0.0 0.00 0.00 0.00 69 1019.8
20260502045231 58 21 0.0 0.0 0.00 0.00 0.00 69 1019.5
20260502044728 59 26 0.0 0.0 0.00 0.00 0.00 68 1019.7
20260502044224 59 26 0.0 1.0 0.00 0.00 0.00 67 1019.4
20260502043722 59 31 1.0 1.0 0.00 0.00 0.00 67 1019.7
20260502043219 59 54 2.0 3.0 0.00 0.00 0.00 67 1019.6
20260502042719 59 15 0.0 1.0 0.00 0.00 0.00 67 1019.5
20260502042216 59 15 0.0 1.0 0.00 0.00 0.00 67 1019.8
20260502041714 60 23 1.0 1.0 0.00 0.00 0.00 67 1019.8
20260502041211 59 58 2.0 2.0 0.00 0.00 0.00 68 1019.5
20260502040708 60 30 0.0 2.0 0.00 0.00 0.00 67 1019.3
20260502040205 60 41 2.0 2.0 0.00 0.00 0.00 67 1019.5
20260502035701 60 58 2.0 5.0 0.00 0.00 0.00 67 1019.4
20260502035157 60 28 0.0 2.0 0.00 0.00 0.00 67 1019.5
20260502034655 60 35 2.0 2.0 0.00 0.00 0.00 66 1019.6
20260502034154 60 39 2.0 2.0 0.00 0.00 0.00 67 1019.6
20260502033651 60 32 0.0 1.0 0.00 0.00 0.00 67 1019.8
20260502033149 60 32 1.0 2.0 0.00 0.00 0.00 67 1019.6
20260502032645 60 36 1.0 3.0 0.00 0.00 0.00 67 1019.7
20260502032141 60 47 2.0 2.0 0.00 0.00 0.00 67 1019.5
20260502031639 60 28 1.0 3.0 0.00 0.00 0.00 67 1019.4
20260502031137 60 27 0.0 2.0 0.00 0.00 0.00 67 1019.4
20260502030635 60 31 1.0 3.0 0.00 0.00 0.00 66 1019.2
20260502030133 60 27 3.0 3.0 0.00 0.00 0.00 67 1019.4
20260502025630 60 76 3.0 6.0 0.00 0.00 0.00 67 1019.4
20260502025128 60 24 1.0 2.0 0.00 0.00 0.00 67 1019.1
20260502024626 60 26 0.0 1.0 0.00 0.00 0.00 68 1019.2
20260502024123 60 29 0.0 2.0 0.00 0.00 0.00 68 1019.1
20260502023621 60 26 0.0 2.0 0.00 0.00 0.00 68 1019.0
20260502023118 60 52 2.0 3.0 0.00 0.00 0.00 68 1019.3
20260502022615 60 35 2.0 2.0 0.00 0.00 0.00 67 1019.0
20260502022112 60 33 1.0 2.0 0.00 0.00 0.00 68 1018.9
20260502021609 60 44 1.0 2.0 0.00 0.00 0.00 68 1019.0
20260502021106 60 36 1.0 2.0 0.00 0.00 0.00 68 1018.6
20260502020604 60 25 1.0 1.0 0.00 0.00 0.00 68 1018.6
20260502020100 60 37 1.0 3.0 0.00 0.00 0.00 68 1018.6
20260502015558 60 61 3.0 3.0 0.00 0.00 0.00 68 1018.4
20260502015054 60 30 1.0 2.0 0.00 0.00 0.00 68 1018.6
20260502014551 60 18 1.0 1.0 0.00 0.00 0.00 69 1018.3
20260502014049 60 25 1.0 3.0 0.00 0.00 0.00 69 1018.1
20260502013544 60 26 1.0 3.0 0.00 0.00 0.00 69 1017.9
20260502013040 60 30 0.0 2.0 0.00 0.00 0.00 70 1018.1
20260502012538 60 24 1.0 1.0 0.00 0.00 0.00 70 1017.6
20260502012035 60 79 3.0 5.0 0.00 0.00 0.00 69 1017.7
20260502011532 60 46 3.0 3.0 0.00 0.00 0.00 70 1017.4
20260502011028 60 83 3.0 5.0 0.00 0.00 0.00 70 1017.7
20260502010526 60 35 2.0 3.0 0.00 0.00 0.00 70 1017.4
20260502010022 60 54 3.0 5.0 0.00 0.00 0.00 69 1017.3
20260502005520 60 65 2.0 5.0 0.00 0.00 0.00 69 1017.3
20260502005018 60 56 3.0 5.0 0.00 0.00 0.00 68 1017.3
20260502004513 61 61 2.0 3.0 0.00 0.00 0.00 69 1017.3
20260502004010 61 34 1.0 5.0 0.00 0.00 0.00 68 1017.1
20260502003508 61 41 1.0 2.0 0.00 0.00 0.00 68 1017.1
20260502003004 61 50 2.0 5.0 0.00 0.00 0.00 68 1017.1
20260502002501 61 39 1.0 3.0 0.00 0.00 0.00 68 1016.8
20260502001958 61 103 4.0 6.0 0.00 0.00 0.00 68 1016.9
20260502001456 61 41 3.0 5.0 0.00 0.00 0.00 67 1016.5
20260502000953 61 59 2.0 6.0 0.00 0.00 0.00 67 1016.9
20260502000454 61 95 2.0 5.0 0.00 0.00 0.00 67 1017.1
20260501235947 62 157 3.0 5.0 0.00 0.00 0.00 67 1016.7
20260501235443 62 86 3.0 6.0 0.00 0.00 0.00 65 1016.5
20260501234938 62 32 2.0 3.0 0.00 0.00 0.00 66 1016.5
20260501234435 62 60 3.0 5.0 0.00 0.00 0.00 65 1016.5
20260501233934 62 126 5.0 6.0 0.00 0.00 0.00 64 1016.3
20260501233431 62 83 4.0 7.0 0.00 0.00 0.00 64 1016.3
20260501232927 62 157 5.0 6.0 0.00 0.00 0.00 64 1016.3
20260501232424 62 76 4.0 5.0 0.00 0.00 0.00 64 1016.4
20260501231922 62 69 2.0 5.0 0.00 0.00 0.00 63 1016.4
20260501231420 62 40 3.0 7.0 0.00 0.00 0.00 63 1016.4
20260501230917 62 68 3.0 7.0 0.00 0.00 0.00 62 1016.3
20260501230416 62 49 3.0 6.0 0.00 0.00 0.00 61 1016.3
20260501225913 63 43 3.0 7.0 0.00 0.00 0.00 61 1015.8
20260501225411 62 10 2.0 6.0 0.00 0.00 0.00 60 1015.9
20260501224907 62 70 5.0 7.0 0.00 0.00 0.00 60 1015.8
20260501224404 62 38 4.0 6.0 0.00 0.00 0.00 60 1016.1
20260501223901 62 20 3.0 5.0 0.00 0.00 0.00 60 1016.1
20260501223356 62 50 7.0 9.0 0.00 0.00 0.00 60 1016.0
20260501222852 63 44 5.0 8.0 0.00 0.00 0.00 60 1016.0